Thomasville, PA

7:39 AM EST on December 11, 2016 (GMT -0500)
York

Weather History for KTHV - March, 2014

Change the Weather History Date:

Friday, March 7, 2014

  Actual Average Record
Temperature  
Mean Temperature 32 °F -  
Max Temperature 39 °F 0 °F 73 °F (2009)
Min Temperature 23 °F - -11 °F (2015)
Degree Days  
Heating Degree Days 34    
Moisture  
Dew Point 22 °F    
Average Humidity 71    
Maximum Humidity 88    
Minimum Humidity 58    
Precipitation  
Precipitation 0.00 in - - ()
Sea Level Pressure  
Sea Level Pressure 30.18 in    
Wind  
Wind Speed 5 mph (NE)    
Max Wind Speed 8 mph    
Max Gust Speed -    
Visibility 10 miles    
Events      
Averages and records for this station are not official NWS values.
T = Trace of Precipitation, MM = Missing Value Source: NWS Daily Summary

Daily Weather History Graph

Daily Weather History Graph

Search for Another Location

Airport or City:

Trip Planner

Search our weather history database for the weather conditions in past years. The results will help you decide how hot, cold, wet, or windy it might be!

Date:

Astronomy

Mar. 07, 2014 Rise Set
Actual Time 6:31 AM EST 6:05 PM EST
Civil Twilight 6:04 AM EST 6:32 PM EST
Nautical Twilight 5:33 AM EST 7:04 PM EST
Astronomical Twilight 5:01 AM EST 7:35 PM EST
Moon 10:23 AM EST (3/7) 12:08 AM EST (3/7)
Length of Visible Light 12h 28m
Length of Day
11h 34m
Waxing Crescent, 42% of the Moon is Illuminated
Mar 7
Waxing Crescent
Mar 8
First Quarter
Mar 16
Full
Mar 23
Last Quarter
Mar 30
New

Hourly Weather History & Observations

Time (EST) Temp. Windchill Dew Point Humidity Pressure Visibility Wind Dir Wind Speed Gust Speed Precip Events Conditions
12:53 AM 26.1 °F 17.6 °F 17.1 °F 69% 30.39 in 10.0 mi East 8.1 mph - N/A   Partly Cloudy
1:53 AM 26.1 °F 19.4 °F 19.0 °F 75% 30.39 in 10.0 mi East 5.8 mph - N/A   Overcast
2:53 AM 26.1 °F 19.4 °F 19.0 °F 75% 30.35 in 10.0 mi NE 5.8 mph - N/A   Overcast
3:53 AM 26.1 °F 19.4 °F 19.0 °F 75% 30.34 in 10.0 mi NE 5.8 mph - N/A   Overcast
4:53 AM 26.1 °F 20.5 °F 18.0 °F 71% 30.32 in 10.0 mi NE 4.6 mph - N/A   Overcast
5:53 AM 25.0 °F 18.1 °F 18.0 °F 75% 30.32 in 10.0 mi NE 5.8 mph - N/A   Overcast
6:53 AM 26.1 °F 20.5 °F 18.0 °F 71% 30.29 in 10.0 mi NNE 4.6 mph - N/A   Overcast
7:53 AM 27.0 °F 21.6 °F 19.0 °F 72% 30.30 in 10.0 mi NE 4.6 mph - N/A   Overcast
8:53 AM 27.0 °F 20.5 °F 19.0 °F 72% 30.26 in 10.0 mi NE 5.8 mph - N/A   Overcast
9:53 AM 28.9 °F 25.2 °F 19.9 °F 69% 30.26 in 10.0 mi ENE 3.5 mph - N/A   Overcast
10:30 AM 30.0 °F 23.2 °F 21.0 °F 69% 30.21 in 10.0 mi North 6.9 mph - N/A   Scattered Clouds
10:53 AM 32.0 °F 24.8 °F 21.9 °F 66% 30.23 in 10.0 mi NNE 8.1 mph - N/A   Clear
11:53 AM 34.0 °F 28.8 °F 23.0 °F 64% 30.20 in 10.0 mi NNE 5.8 mph - N/A   Clear
12:53 PM 36.0 °F 32.1 °F 25.0 °F 64% 30.15 in 10.0 mi NE 4.6 mph - N/A   Clear
1:53 PM 37.9 °F 34.4 °F 26.1 °F 62% 30.13 in 10.0 mi North 4.6 mph - N/A   Clear
2:53 PM 39.0 °F 36.8 °F 27.0 °F 62% 30.11 in 10.0 mi ENE 3.5 mph - N/A   Clear
3:53 PM 39.9 °F 35.8 °F 26.1 °F 58% 30.08 in 10.0 mi ENE 5.8 mph - N/A   Clear
4:53 PM 39.9 °F 37.8 °F 26.1 °F 58% 30.05 in 10.0 mi NE 3.5 mph - N/A   Clear
5:53 PM 37.0 °F 32.4 °F 25.0 °F 62% 30.04 in 10.0 mi NE 5.8 mph - N/A   Clear
6:53 PM 36.0 °F 33.3 °F 24.1 °F 62% 30.03 in 10.0 mi NNE 3.5 mph - N/A   Clear
7:53 PM 28.0 °F - 24.1 °F 85% 30.03 in 10.0 mi Calm Calm - N/A   Clear
8:53 PM 27.0 °F - 23.0 °F 85% 30.02 in 10.0 mi Calm Calm - N/A   Clear
9:53 PM 25.0 °F - 21.9 °F 88% 30.01 in 7.0 mi Calm Calm - N/A   Clear
10:53 PM 24.1 °F - 21.0 °F 88% 29.99 in 6.0 mi Calm Calm - N/A   Clear
11:53 PM 23.0 °F - 19.9 °F 88% 29.96 in 5.0 mi Calm Calm - N/A   Clear